Regional Weather Roundup
Issued by NWS

Home | Current Version | Previous Version | Graphics & Text | Print | Product List | Glossary On
Versions: 1 2 3 4 5 6 7 8 9 10 11 12 13 14 15 16 17 18 19 20 21 22 23 24 25 26 27 28 29 30 31 32 33 34 35 36 37 38 39 40 41 42 43 44 45 46 47 48 49 50
000
ASUS45 KCYS 071210
RWRWY

WYOMING REGIONAL WEATHER ROUNDUP
NATIONAL WEATHER SERVICE CHEYENNE WY
600 AM MDT TUE JUL 07 2015

NOTE:  "FAIR" INDICATES FEW OR NO CLOUDS BELOW 12,000 FEET
WITH NO SIGNIFICANT WEATHER AND/OR OBSTRUCTIONS TO VISIBILITY.

WYZ001-071300-
YELLOWSTONE NATIONAL PARK

CITY           SKY/WX    TMP DP  RH WIND       PRES   REMARKS
LK YELLOWSTONE   N/A     47  45  93 CALM      30.33R
6HR MIN TEMP:  45; 6HR MAX TEMP:  52; 6HR PCP:  0.24;

W YELLOWSTONE  NOT AVBL

$$
WYZ002>013-054>058-071-098>099-071300-
NORTHERN WYOMING

CITY           SKY/WX    TMP DP  RH WIND       PRES   REMARKS
JACKSON        CLOUDY    45  45 100 N6        30.24R
CODY           CLOUDY    57  52  82 S6        30.14S
GREYBULL       CLOUDY    57  49  74 CALM      30.09S
6HR MIN TEMP:  57; 6HR MAX TEMP:  65;

WORLAND        MOCLDY    60  53  77 NE5       30.09S
6HR MIN TEMP:  59; 6HR MAX TEMP:  63;

SHERIDAN       FAIR      49  47  93 CALM      30.10S FOG
6HR MIN TEMP:  47; 6HR MAX TEMP:  53;

BUFFALO        FAIR      53  45  74 SW3       30.14S
6HR MIN TEMP:  50; 6HR MAX TEMP:  55;

GILLETTE       FAIR      54  52  93 S13       30.13F FOG
6HR MIN TEMP:  49; 6HR MAX TEMP:  55;

HULETT         CLOUDY    61  52  72 S9G16     30.16S
NEWCASTLE      FAIR      59  50  72 SE10      30.19S

$$
WYZ014>020-022>026-101>103-071300-
CENTRAL WYOMING

CITY           SKY/WX    TMP DP  RH WIND       PRES   REMARKS
BIG PINEY      FAIR      50  49  96 W3        30.26S
6HR MIN TEMP:  50; 6HR MAX TEMP:  56;

PINEDALE       FAIR      50  50 100 W5        30.26F
DUBOIS         FAIR      46  45  93 W8        30.25S
LANDER         CLOUDY    56  51  84 SW5       30.16S
6HR MIN TEMP:  55; 6HR MAX TEMP:  58;

RIVERTON       CLOUDY    58  52  80 W8        30.17S
6HR MIN TEMP:  56; 6HR MAX TEMP:  62; 6HR PCP: TRACE;

CASPER         FAIR      53  50  89 E7        30.17S FOG
6HR MIN TEMP:  53; 6HR MAX TEMP:  56;

DOUGLAS        FAIR      56  54  93 SE9       30.17F FOG
6HR MIN TEMP:  53; 6HR MAX TEMP:  56;


$$
WYZ021-027>030-104>119-071300-
SOUTHERN WYOMING

CITY           SKY/WX    TMP DP  RH WIND       PRES   REMARKS
EVANSTON       FAIR      53  49  86 E9        30.25S
6HR MIN TEMP:  52; 6HR MAX TEMP:  56;

KEMMERER       FAIR      46  45  93 N7        30.27R
FORT BRIDGER   CLOUDY    54  54 100 E3        30.28F FOG
ROCK SPRINGS   FAIR      54  51  90 CALM      30.23S
6HR MIN TEMP:  54; 6HR MAX TEMP:  56; 6HR PCP: TRACE;

DIXON          CLOUDY    56  52  84 NE3       30.24R
RAWLINS        FAIR      54  52  93 NE5       30.22S
6HR MIN TEMP:  54; 6HR MAX TEMP:  56;

SARATOGA       FAIR      52  52 100 W3        30.24S
LARAMIE        LGT RAIN  51  50  96 SE9       30.26F
6HR MIN TEMP:  51; 6HR MAX TEMP:  53; 6HR PCP:  0.01;

CHEYENNE       CLOUDY    53  52  96 S12       30.25S FOG
6HR MIN TEMP:  53; 6HR MAX TEMP:  54; 6HR PCP:  0.01;

TORRINGTON     CLOUDY    60  55  83 E7        30.18S HAZE
6HR MIN TEMP:  60; 6HR MAX TEMP:  62;

PINE BLUFFS    CLOUDY    55  52  88 S9        30.24S

$$


USA.gov is the U.S. government's official web portal to all federal, state and local government web resources and services.